DateTimeUTC,F1_A11,F1_S11,BsB_S11,BsG_S11,BsR_S11,BbsB_S11,BbsG_S11,BbsR_S11,BaB_A11,BaG_A11,BaR_A11,Tu_S11,T_S11,Uu_S11,U_S11,P_S11,T1_A11
2021-02-09T06:00:00Z,00000200,21000000,,,,,,,0000.02,-000.43,-000.05,16.4,23.6,,00.0,0653.7,31.0
2021-02-09T06:01:00Z,00000200,21000000,,,,,,,-000.41,0000.33,-000.04,16.4,23.6,,00.0,0653.7,31.0
2021-02-09T06:02:00Z,00000200,21000000,,,,,,,0000.12,0000.16,0000.15,16.3,23.6,,00.0,0653.7,31.0
2021-02-09T06:03:00Z,00000200,61000000,,,,,,,0001.04,0000.28,0000.36,16.3,23.6,,00.0,0653.7,31.0
2021-02-09T06:04:00Z,00000200,41000000,0000.97,0000.77,0000.13,0000.34,0000.14,0000.34,0000.59,0000.91,0000.69,16.4,23.4,,00.0,0654.6,31.0
2021-02-09T06:05:00Z,00000200,01000000,0001.19,0000.62,0000.74,-000.15,0000.16,0000.53,0004.88,0004.17,0002.95,16.4,23.3,,00.0,0654.7,30.9
2021-02-09T06:06:00Z,00000200,01000000,0001.09,0001.15,0000.36,0000.20,0000.36,0000.35,0011.81,0010.78,0008.25,16.4,23.3,,00.0,0654.6,31.0
2021-02-09T06:07:00Z,00000200,01000000,0000.91,0000.68,0000.25,0000.07,0000.11,0000.16,0004.64,0004.01,0003.18,16.5,23.3,,00.0,0654.6,31.0
2021-02-09T06:08:00Z,00000200,01000000,0000.41,0000.58,0000.32,0000.21,0000.06,0000.00,-000.01,0000.14,0000.17,16.5,23.4,,00.0,0654.6,31.0
2021-02-09T06:09:00Z,00000200,01000000,0001.15,0000.64,0000.23,-000.13,-000.08,-000.03,0000.73,0000.45,0000.19,16.6,23.4,,00.0,0654.6,31.0
2021-02-09T06:10:00Z,00000200,01000000,0000.25,0000.96,0000.12,-000.03,0000.26,0000.09,0002.01,0001.73,0001.44,16.6,23.4,,00.0,0654.6,31.0
2021-02-09T06:11:00Z,00000200,01000000,0000.84,0000.83,0000.33,-000.19,0000.39,0000.25,0000.44,0000.71,0000.30,16.6,23.4,,00.0,0654.6,31.0
2021-02-09T06:12:00Z,00000200,01000000,0000.94,0000.37,0000.17,0000.24,-000.05,-000.02,0000.37,0000.13,0000.23,16.5,23.3,,00.0,0654.5,31.0
2021-02-09T06:13:00Z,00000200,01000000,0000.97,0000.49,-000.02,-000.09,-000.28,0000.06,0000.03,0000.24,0000.19,16.5,23.3,,00.0,0654.6,31.0
2021-02-09T06:14:00Z,00000200,01000000,0000.87,0000.81,0000.51,0000.25,0000.13,0000.13,0000.67,0000.47,0000.22,16.4,23.3,,00.0,0654.6,31.0
2021-02-09T06:15:00Z,00000200,01000000,0000.73,0000.49,0000.44,0000.03,0000.04,0000.37,0000.39,0000.37,0000.07,16.4,23.3,,00.0,0654.6,31.0
2021-02-09T06:16:00Z,00000200,01000000,0001.28,0000.57,0000.38,0000.57,0000.11,0000.20,0000.12,0000.03,0000.06,16.3,23.2,,00.0,0654.6,30.9
2021-02-09T06:17:00Z,00000200,01000000,-000.06,0000.37,0000.60,-000.20,-000.14,0000.31,0000.39,0000.46,0000.32,16.3,23.2,,00.0,0654.6,30.9
2021-02-09T06:18:00Z,00000200,01000000,0000.71,0000.79,0000.10,0000.12,-000.07,0000.09,0003.81,0003.25,0002.35,16.2,23.2,,00.0,0654.6,30.9
2021-02-09T06:19:00Z,00000200,01000000,0000.90,0000.93,0000.27,0000.39,0000.12,0000.09,0006.39,0006.15,0005.04,16.2,23.2,,00.0,0654.7,30.9
2021-02-09T06:20:00Z,00000200,01000000,0000.46,0000.76,0000.10,-000.09,0000.16,0000.39,0002.68,0002.20,0001.68,16.1,23.2,,00.0,0654.7,30.9
2021-02-09T06:21:00Z,00000200,01000000,0000.51,0000.61,0000.23,0000.62,-000.04,-000.04,0000.87,0000.53,0000.50,16.2,23.1,,00.0,0654.7,30.9
2021-02-09T06:22:00Z,00000200,01000000,0000.77,0000.41,0000.23,-000.15,0000.17,0000.14,0000.32,0000.67,0000.24,16.2,23.1,,00.0,0654.7,30.9
2021-02-09T06:23:00Z,00000200,01000000,0000.33,0000.61,0000.41,-000.08,0000.42,0000.11,0002.93,0002.72,0001.74,16.3,23.2,,00.0,0654.6,30.9
2021-02-09T06:24:00Z,00000200,01000000,0001.42,0000.65,0000.40,0000.06,0000.10,-000.01,0004.86,0004.28,0003.49,16.3,23.2,,00.0,0654.6,31.0
2021-02-09T06:25:00Z,00000200,01000000,0000.41,0000.78,0000.60,-000.36,0000.09,0000.00,0007.42,0006.72,0005.31,16.3,23.2,,00.0,0654.6,30.9
2021-02-09T06:26:00Z,00000200,01000000,0000.91,0000.57,0000.32,0000.43,0000.09,-000.05,0005.56,0004.84,0003.47,16.3,23.2,,00.0,0654.6,30.9
2021-02-09T06:27:00Z,00000200,01000000,0000.23,0000.90,0000.59,0000.06,0000.16,0000.00,0005.40,0005.13,0003.82,16.2,23.2,,00.0,0654.6,31.0
2021-02-09T06:28:00Z,00000200,01000000,0000.88,0000.62,0000.00,0000.32,0000.28,0000.15,0006.96,0006.08,0004.72,16.2,23.2,,00.0,0654.6,30.9
2021-02-09T06:29:00Z,00000200,01000000,0000.60,0000.42,0000.03,0000.38,0000.31,-000.02,0001.88,0001.48,0001.52,16.1,23.1,,00.0,0654.6,30.9
2021-02-09T06:30:00Z,00000200,01000000,0000.60,0000.50,0000.15,0000.30,0000.12,0000.03,0000.51,0000.50,0000.04,16.1,23.1,,00.0,0654.7,30.9
2021-02-09T06:31:00Z,00000200,01000000,0000.86,0000.53,0000.34,-000.34,0000.18,0000.24,0000.50,0000.45,0000.42,16.1,23.1,,00.0,0654.7,30.9
2021-02-09T06:32:00Z,00000200,01000000,0000.94,0000.62,0000.23,-000.13,0000.22,0000.04,0000.39,0000.42,0000.38,16.0,23.0,,00.0,0654.7,30.9
2021-02-09T06:33:00Z,00000200,01000000,0000.93,0000.70,0000.33,-000.11,0000.14,-000.10,0000.48,0000.49,0000.00,16.0,23.0,,00.0,0654.7,30.9
2021-02-09T06:34:00Z,00000200,01000000,0001.11,0000.56,0000.37,-000.21,0000.25,0000.40,0000.28,0000.43,0000.17,15.9,23.0,,00.0,0654.7,30.9
2021-02-09T06:35:00Z,00000200,01000000,0001.10,0000.44,0000.32,0000.43,0000.40,0000.09,0000.67,0000.56,0000.40,15.9,23.0,,00.0,0654.7,30.9
2021-02-09T06:36:00Z,00000200,01000000,0000.74,0000.79,0000.21,0000.22,0000.03,0000.06,0000.46,0000.08,0000.48,15.9,22.9,,00.0,0654.7,30.9
2021-02-09T06:37:00Z,00000200,01000000,0000.43,0000.81,0000.13,0000.11,0000.34,0000.24,0000.69,0000.59,0000.24,16.0,22.9,,00.0,0654.8,30.9
2021-02-09T06:38:00Z,00000200,01000000,0001.07,0000.71,0000.28,0000.34,0000.05,0000.13,0000.06,0000.43,0000.49,16.1,23.0,,00.0,0654.8,30.9
2021-02-09T06:39:00Z,00000200,01000000,0000.90,0000.67,0000.33,0000.57,-000.00,0000.11,0000.49,0000.29,0000.00,16.2,23.0,,00.0,0654.8,30.9
2021-02-09T06:40:00Z,00000200,01000000,0001.94,0000.69,0000.42,0000.02,0000.20,0000.26,0000.26,0000.38,0000.11,16.2,23.1,,00.0,0654.8,30.9
2021-02-09T06:41:00Z,00000200,01000000,0000.50,0000.75,0000.34,0000.22,-000.02,-000.00,0000.32,-000.05,0000.29,16.2,23.1,,00.0,0654.8,31.0
2021-02-09T06:42:00Z,00000200,01000000,0001.12,0000.86,0000.33,0000.44,0000.25,-000.16,-000.14,0000.12,-000.08,16.2,23.1,,00.0,0654.7,30.9
2021-02-09T06:43:00Z,00000200,01000000,0001.09,0000.36,0000.29,-000.14,0000.14,0000.33,0000.72,0000.60,0000.18,16.2,23.1,,00.0,0654.7,30.9
2021-02-09T06:44:00Z,00000200,01000000,0000.84,0000.36,0000.11,-000.41,0000.39,0000.05,0000.06,0000.09,0000.15,16.2,23.0,,00.0,0654.7,30.9
2021-02-09T06:45:00Z,00000200,01000000,0001.06,0000.65,0000.35,-000.02,0000.20,0000.44,0000.46,0000.15,0000.17,16.1,23.0,,00.0,0654.7,30.9
2021-02-09T06:46:00Z,00000200,01000000,0001.30,0000.57,0000.38,0000.13,0000.03,0000.05,0000.26,0000.38,0000.68,16.1,23.0,,00.0,0654.8,30.9
2021-02-09T06:47:00Z,00000200,01000000,0000.12,0000.57,0000.17,-000.33,0000.31,0000.01,0000.30,0000.14,-000.04,16.0,23.0,,00.0,0654.9,30.9
2021-02-09T06:48:00Z,00000200,01000000,-000.03,0000.34,0000.18,-000.11,0000.12,-000.07,0000.15,0000.33,0000.03,16.0,23.0,,00.0,0654.9,30.9
2021-02-09T06:49:00Z,00000200,01000000,0001.61,0000.99,0000.35,-000.26,0000.13,0000.24,-000.09,0000.13,0000.18,15.9,22.9,,00.0,0654.9,30.9
2021-02-09T06:50:00Z,00000200,01000000,0000.58,0000.59,0000.27,0000.21,0000.06,0000.03,0000.70,0000.11,0000.14,15.9,22.9,,00.0,0654.9,30.9
2021-02-09T06:51:00Z,00000200,01000000,0001.24,0000.53,0000.44,0000.00,0000.26,0000.22,-000.09,0000.30,0000.04,15.9,22.9,,00.0,0654.9,30.9
2021-02-09T06:52:00Z,00000200,01000000,0000.72,0000.76,0000.22,0000.04,0000.16,0000.20,0000.49,-000.12,0000.14,16.0,22.9,,00.0,0654.9,30.9
2021-02-09T06:53:00Z,00000200,01000000,0000.67,0000.53,0000.38,0000.20,0000.30,-000.09,0000.41,0000.77,0000.59,16.0,23.0,,00.0,0654.9,30.9
2021-02-09T06:54:00Z,00000200,01000000,0001.09,0000.69,0000.56,0000.67,0000.14,0000.29,0000.43,0000.36,0000.14,16.1,23.0,,00.0,0654.8,30.9
2021-02-09T06:55:00Z,00000200,01000000,0001.31,0000.83,0000.33,0000.16,0000.19,0000.01,0000.45,0000.67,0000.54,16.2,23.0,,00.0,0654.9,31.0
2021-02-09T06:56:00Z,00000200,01000000,0001.17,0000.49,0000.14,-000.71,0000.14,0000.07,0000.59,0000.42,0000.04,16.3,23.1,,00.0,0654.9,31.0
2021-02-09T06:57:00Z,00000200,41000000,,,,,,,0001.30,0000.91,0000.97,16.4,23.1,,00.0,0654.9,31.0
2021-02-09T06:58:00Z,00000200,61000000,,,,,,,-000.67,-000.58,-000.60,16.0,23.3,,00.0,0654.0,31.0
2021-02-09T06:59:00Z,00000200,21000000,,,,,,,-000.61,-000.43,-000.30,16.0,23.4,,00.0,0654.0,31.0
